2018-102L (43841 NORAD) Tracking and Keplerian Element Data

This shows tracking and keplerian element data for the satellite.

Feedback or suggestion? Click here.




ElementValue
Catalog43841
Name2018-102L
Epoch Orbit10016
Epoch Day275.20239359
Epoch Year2020
RAAN351.8233
Inclination97.5742
Eccentricity0.0016878
Argument of Perigee167.38
Mean Anonmoly245.4552
Mean Motion15.09901681
Decay Rate1.539E-05
L11 43841U 18102L 20275.20239359 .00001539 00000-0 98673-4 0 9996
L22 43841 97.5742 351.8233 0016878 167.3800 245.4552 15.09901681100161



Live tracking and technical data element details for 2018-102L (NORAD 43841). 2018-102L can be tracked NOW for your location showing map with azimuth and elevation plus other details from your city location.







IsCatalogInMostPopularTable: catalog: 43841, numindb: 290
Update: records affected: 1



GetName: 43841 2018-102L

Hit Count: updated at: Thu, 15 May 2025 19:20:00 GMT